Weather History for Patuxent River, MD

Change the Weather History Date:

Thursday, February 7, 2013

  Actual Average Record
Temperature  
Mean Temperature 33 °F -  
Max Temperature 41 °F 36 °F 37 °F (2014)
Min Temperature 25 °F 23 °F 23 °F (2014)
Degree Days  
Heating Degree Days 32    
Moisture  
Dew Point 27 °F    
Average Humidity 71    
Maximum Humidity 88    
Minimum Humidity 57    
Precipitation  
Precipitation 0.01 in - - ()
Sea Level Pressure  
Sea Level Pressure 30.35 in    
Wind  
Wind Speed 4 mph (NE)    
Max Wind Speed 12 mph    
Max Gust Speed -    
Visibility 10 miles    
Events Rain    
Averages and records for this station are not official NWS values.
T = Trace of Precipitation, MM = Missing Value Source: NWS Daily Summary

Daily Weather History Graph

Daily Weather History Graph

Search for Another Location

Airport:

Trip Planner

Search our weather history database for the weather conditions in past years. The results will help you decide how hot, cold, wet, or windy it might be!

Date:

Astronomy

Feb. 07, 2013 Rise Set
Actual Time 7:04 AM EST 5:35 PM EST
Civil Twilight 6:37 AM EST 6:02 PM EST
Nautical Twilight 6:05 AM EST 6:34 PM EST
Astronomical Twilight 5:35 AM EST 7:05 PM EST
Moon 4:41 AM EST (2/7) 2:58 PM EST (2/7)
Length of Visible Light 11h 25m
Length of Day
10h 30m
Waning Crescent, 9% of the Moon is Illuminated
Feb 7
Waning Crescent
Feb 10
New
Feb 17
First Quarter
Feb 25
Full
Mar 4
Last Quarter

Hourly Weather History & Observations

Time (EST) Temp. Windchill Dew Point Humidity Pressure Visibility Wind Dir Wind Speed Gust Speed Precip Events Conditions
12:52 AM 30.9 °F 27.5 °F 24.1 °F 76% 30.37 in 10.0 mi NNE 3.5 mph - N/A   Clear
1:52 AM 27.0 °F - 21.9 °F 81% 30.41 in 10.0 mi Calm Calm - N/A   Clear
2:52 AM 26.1 °F - 21.0 °F 81% 30.40 in 10.0 mi Calm Calm - N/A   Clear
3:52 AM 27.0 °F - 21.9 °F 81% 30.38 in 10.0 mi Calm Calm - N/A   Clear
4:52 AM 25.0 °F - 21.9 °F 88% 30.38 in 10.0 mi Calm Calm - N/A   Clear
5:12 AM 26.6 °F - 21.2 °F 80% 30.39 in 10.0 mi Calm Calm - N/A   Clear
5:52 AM 28.0 °F - 23.0 °F 81% 30.40 in 10.0 mi Calm Calm - N/A   Scattered Clouds
6:52 AM 28.9 °F - 21.9 °F 75% 30.42 in 10.0 mi Calm Calm - N/A   Mostly Cloudy
7:52 AM 33.1 °F - 25.0 °F 72% 30.43 in 7.0 mi Calm Calm - N/A   Mostly Cloudy
8:52 AM 35.1 °F 29.3 °F 26.1 °F 70% 30.44 in 8.0 mi NE 6.9 mph - N/A   Overcast
9:52 AM 36.0 °F 31.1 °F 27.0 °F 70% 30.45 in 10.0 mi ENE 5.8 mph - N/A   Overcast
10:52 AM 37.9 °F 32.1 °F 28.0 °F 68% 30.45 in 10.0 mi ENE 8.1 mph - N/A   Overcast
11:52 AM 39.0 °F 31.8 °F 26.1 °F 60% 30.41 in 10.0 mi East 11.5 mph - N/A   Overcast
12:52 PM 39.9 °F 32.9 °F 26.1 °F 58% 30.38 in 10.0 mi ENE 11.5 mph - N/A   Overcast
1:52 PM 41.0 °F 35.8 °F 27.0 °F 57% 30.36 in 10.0 mi East 8.1 mph - N/A   Overcast
2:52 PM 41.0 °F 36.4 °F 27.0 °F 57% 30.33 in 10.0 mi ENE 6.9 mph - N/A   Overcast
3:52 PM 41.0 °F 37.1 °F 27.0 °F 57% 30.32 in 10.0 mi East 5.8 mph - N/A   Overcast
4:52 PM 41.0 °F 38.0 °F 28.9 °F 62% 30.31 in 10.0 mi East 4.6 mph - N/A   Overcast
5:52 PM 39.9 °F 36.7 °F 30.0 °F 68% 30.31 in 10.0 mi East 4.6 mph - N/A   Overcast
6:52 PM 39.0 °F 35.7 °F 30.9 °F 73% 30.31 in 10.0 mi NE 4.6 mph - N/A   Mostly Cloudy
7:52 PM 39.0 °F 34.8 °F 30.0 °F 70% 30.30 in 10.0 mi NE 5.8 mph - N/A   Mostly Cloudy
8:52 PM 39.0 °F 34.8 °F 30.9 °F 73% 30.27 in 10.0 mi NNE 5.8 mph - N/A   Scattered Clouds
9:52 PM 39.0 °F 32.8 °F 30.9 °F 73% 30.24 in 10.0 mi NE 9.2 mph - N/A   Mostly Cloudy
9:54 PM 39.2 °F 32.5 °F 30.2 °F 70% 30.24 in 10.0 mi NE 10.4 mph - N/A   Overcast
10:52 PM 39.0 °F 32.3 °F 32.0 °F 76% 30.20 in 10.0 mi NNE 10.4 mph - N/A   Overcast
11:52 PM 37.9 °F 35.5 °F 32.0 °F 79% 30.19 in 10.0 mi North 3.5 mph - 0.01 in Rain Light Rain